Regional Weather Roundup
Issued by NWS

Home | Current Version | Previous Version | Graphics & Text | Print | Product List | Glossary Off
Versions: 1 2 3 4 5 6 7 8 9 10 11 12 13 14 15 16 17 18 19 20 21 22 23 24 25 26 27 28 29 30 31 32 33 34 35 36 37 38 39 40 41 42 43 44 45 46 47 48 49 50

000
ASUS43 KTOP 280659
RWRKS

WEATHER ROUNDUP FOR KANSAS
NATIONAL WEATHER SERVICE GOODLAND KS
200 AM CDT SUN AUG 28 2016

NOTE:  "FAIR" INDICATES FEW OR NO CLOUDS BELOW 12,000 FEET WITH NO
SIGNIFICANT WEATHER AND/OR OBSTRUCTIONS TO VISIBILITY.

KSZ001>006-013>018-027>032-041>047-280800-
NORTHWEST KANSAS

CITY           SKY/WX    TMP DP  RH WIND       PRES   REMARKS
GOODLAND       CLEAR     65  59  81 S9        30.06S
HAYS           CLEAR     70  61  73 CALM      30.04R
HILL CITY      CLEAR     71  67  87 S6        30.04R
RUSSELL        CLOUDY    71  68  90 SE8       30.02S
$$

KSZ061>065-074>080-084>089-280800-
SOUTHWEST KANSAS

CITY           SKY/WX    TMP DP  RH WIND       PRES   REMARKS
DODGE CITY     CLEAR     65  59  81 S7        30.05F
ELKHART          N/A     63  57  81 SW6         N/A
GARDEN CITY    CLOUDY    66  59  78 S7        30.07R
GREAT BEND     CLOUDY    72  63  73 SE7       30.04R
LIBERAL        CLOUDY    72  63  73 S17       30.09S
$$

KSZ066>073-081>083-090>101-280800-
SOUTHEAST KANSAS

CITY           SKY/WX    TMP DP  RH WIND       PRES   REMARKS
CHANUTE        CLEAR     74  70  87 SE5       30.06S
COFFEYVILLE    PTCLDY    74  69  85 SE5       30.05F
HUTCHINSON     PTCLDY    74  69  85 SE5       30.03S
NEWTON         PTCLDY    72  69  90 SE9       30.06S
PARSONS        PTCLDY    74  69  85 CALM      30.07S
WICHITA INTL   PTCLDY    75  68  78 SE8       30.03F
WICHITA JABRA  PTCLDY    72  68  87 SE9       30.04F
WINFIELD       CLEAR     75  69  81 S7        30.05F
$$

KSZ007>012-019>026-033>040-048>060-102>105-280800-
NORTHEAST KANSAS

CITY           SKY/WX    TMP DP  RH WIND       PRES   REMARKS
CONCORDIA      CLOUDY    71  69  93 S8        30.04S
EMPORIA        PTCLDY    69  68  96 SE6       30.06S
LAWRENCE       PTCLDY    69  68  96 CALM      30.06S
MANHATTAN      MOCLDY    74  68  81 CALM      30.04S
OLATHE IND     CLEAR     74  71  91 SE6       30.08S
OLATHE EXE     CLEAR     73  70  90 SE3       30.08S
SALINA         MOCLDY    75  70  84 SE9       30.03S
TOPEKA BILLARD CLEAR     72  68  87 CALM      30.06S
TOPEKA FORBES  PTCLDY    73  68  84 E5        30.06S
$$




USA.gov is the U.S. government's official web portal to all federal, state and local government web resources and services.